www.pogodaiklimat.ru

Погода и климат >> Архив погоды >> Индия >> New Delhi


АРХИВ ПОГОДЫ в New Delhi

Время (UTC), дата Ветер
(напр.,м/с)
 
Видим.   Явления Облачность Т
(С)
Тd
(С)
f
(%)
Тe
(С)
Тes
(С)
Комфортность P
(гПа)
Po
(гПа)
Тmin
(С)
Tmax
(С)
R
(мм)
R24
(мм)
S
(см)
21 18.05 штиль 0 2000 м мгла ясно +29.6 +20.6 58 +36 +36 очень
душно
1000.7 1001.0
00 19.05 штиль 0 2000 м мгла 5/3 1050 м
[Sc Ac trans]
+27.2 +21.5 71 +35 +35 очень
душно
1001.8 1002.0
03 19.05 СВ 2 2000 м мгла 9/4 900 м
[Cb calv Ac trans]
+32.0 +20.6 51 +39 +41 очень
душно
1003.2 1003.0 +26.4 +40.6
06 19.05 Ю 1 2000 м мгла 5/5 1200 м
[Cb calv Ac trans]
+38.8 +12.2 20 +38 +51 опасность
солнечного
удара
1002.5 1003.0
09 19.05 С 2 2000 м мгла 5/3 1200 м
[Sc Ac trans]
+41.2 +16.2 23 +43 +53 опасность
перегрева
999.9 1000.0
12 19.05 Ю 4 2000 м мгла 8/4 1200 м
[Sc Ac trans]
+34.4 +16.1 34 +37 +38 очень
душно
999.8 1000.0 +41.4
15 19.05 ЮВ 2 2000 м мгла 3/0
[Ac trans]
+32.4 +18.6 44 +37 +37 очень
душно
1001.4 1001.0
18 19.05 штиль 0 2000 м мгла 3/0
[Ac trans]
+29.8 +18.3 50 +35 +35 очень
душно
1002.7 1003.0
21 19.05 штиль 0 2000 м мгла 3/0
[]
+28.6 +17.9 52 +33 +33 очень
душно
1002.3 1002.0
00 20.05 штиль 0 2000 м мгла 3/0
[Ac trans]
+28.4 +15.4 45 +31 +31 душно 1002.9 1003.0
03 20.05 штиль 0 2000 м мгла 3/0
[Ac trans]
+32.4 +16.6 39 +36 +45 очень
душно
1004.2 1004.0 +27.0 +41.4
06 20.05 С 4 2000 м мгла 3/0
[Ac trans]
+37.6 +15.6 27 +39 +50 очень
душно
1003.9 1004.0
09 20.05 С 2 4000 м мгла 4/0
[Ac trans]
+40.0 +8.7 15 +38 +50 очень
жарко
1002.3 1002.0
12 20.05 С 1 4000 м мгла 3/0
[Ac trans]
+39.0 +13.0 21 +39 +41 очень
жарко
1000.9 1001.0 +40.8
15 20.05 штиль 0 2000 м мгла ясно +32.2 +17.2 41 +36 +36 очень
душно
1002.4 1002.0
18 20.05 штиль 0 2000 м мгла ясно +28.6 +15.2 44 +31 +31 жарко 1003.1 1003.0
21 20.05 штиль 0 2000 м мгла ясно +27.2 +15.0 47 +30 +30 душно 1002.9 1003.0
00 21.05 штиль 0 2000 м мгла ясно +26.2 +12.0 41 +28 +28 жарко 1003.3 1003.0
03 21.05 С 2 2000 м мгла ясно +32.0 +12.5 30 +32 +41 жарко 1005.2 1005.0 +25.5 +40.8
06 21.05 С 4 4000 м мгла ясно +39.2 +8.9 16 +37 +51 опасность
солнечного
удара
1000.7 1001.0
09 21.05 С 5 4000 м мгла ясно +41.2 +5.2 11 +38 +48 очень
жарко
1002.1 1002.0
12 21.05 С 3 4000 м мгла ясно +40.4 +8.3 14 1002.6 1002.7 +41.8
15 21.05 штиль 0 2000 м мгла ясно +32.4 +15.8 37 +35 +35 душно 1002.8 1003.0
18 21.05 штиль 0 2000 м мгла ясно +31.2 +16.2 40 +34 +34 душно 1003.2 1003.0
21 21.05 штиль 0 2000 м мгла ясно +29.8 +16.4 44 +33 +33 душно 1002.9 1003.0
00 22.05 штиль 0 2000 м мгла ясно +26.6 +13.8 45 +29 +29 жарко 1002.3 1002.0
03 22.05 З 3 4000 м мгла ясно +33.0 +9.6 24 +32 +40 жарко 1003.8 1004.0 +26.2 +41.8
06 22.05 СЗ 3 4000 м мгла ясно +40.4 +10.1 16 +39 +58 опасность
солнечного
удара
1003.2 1003.0
09 22.05 С 2 4000 м мгла ясно +43.0 +10.5 15 +42 +60 опасность
перегрева
1003.6 1004.0
12 22.05 СВ 2 4000 м мгла ясно +41.8 +16.2 23 +44 +47 опасность
перегрева
999.3 999.0 +44.0
15 22.05 штиль 0 2000 м мгла ясно +34.2 +20.1 44 +41 +41 опасность
перегрева
1000.6 1001.0
18 22.05 штиль 0 2000 м мгла ясно +31.6 +18.7 46 +36 +36 очень
душно
1001.6 1002.0
21 22.05 штиль 0 2000 м мгла ясно +29.6 +18.1 50 +34 +34 очень
душно
1001.2 1001.0
00 23.05 штиль 0 2000 м мгла 3/0
[Ac trans]
+27.2 +17.7 56 +31 +31 душно 1001.7 1002.0
03 23.05 штиль 0 2000 м мгла 5/3 1050 м
[Sc Ac trans]
+31.8 +18.2 44 +36 +43 очень
душно
1003.1 1003.0 +26.7 +44.0
06 23.05 СВ 2 2000 м мгла 6/3 1200 м
[Sc Ac trans]
+40.0 +15.7 24 +41 +52 опасность
перегрева
1002.1 1002.0
09 23.05 СВ 2 2000 м мгла 3/0
[Ac trans]
+43.0 +14.4 19 +44 +57 опасность
перегрева
999.4 999.0
12 23.05 С 1 2000 м мгла 3/0
[Ac trans]
+41.0 +16.8 25 +43 +46 опасность
перегрева
997.8 998.0 +43.0
15 23.05 штиль 0 2000 м мгла ясно +34.4 +20.4 44 +41 +41 опасность
перегрева
999.1 999.0
18 23.05 штиль 0 2000 м мгла ясно +31.4 +20.3 52 +38 +38 очень
душно
999.7 1000.0
21 23.05 штиль 0 2000 м мгла ясно +30.0 +19.2 52 +35 +35 очень
душно
999.3 999.0
00 24.05 штиль 0 2000 м мгла ясно +27.0 +15.2 48 +30 +30 душно 1000.2 1000.0
03 24.05 штиль 0 2000 м пыль 3/0
[Ac trans]
+31.0 +15.1 38 +33 +42 душно 1002.2 1002.0 +26.5 +43.0
06 24.05 С 2 2000 м пыль 3/0
[Ac trans]
+38.0 +20.6 37 +44 +63 опасность
перегрева
1001.7 1002.0
09 24.05 С 3 4000 м мгла 6/3 1200 м
[Sc Ac trans]
+41.0 +15.9 23 +42 +50 опасность
перегрева
998.9 999.0
12 24.05 СВ 2 4000 м мгла 5/3 1200 м
[Sc Ac trans]
+40.0 +17.4 27 +43 +45 опасность
перегрева
997.7 998.0 +43.0
15 24.05 штиль 0 2000 м мгла ясно +32.2 +20.2 49 +39 +39 очень
душно
999.5 1000.0
18 24.05 штиль 0 2000 м мгла 3/0
[Ac trans]
+28.6 +17.6 51 +33 +33 очень
душно
1000.9 1001.0
21 24.05 штиль 0 2000 м мгла 3/0
[Ac trans]
+27.2 +17.0 54 +31 +31 душно 1000.3 1000.0
00 25.05 штиль 0 2000 м мгла ясно +24.6 +16.1 59 +28 +28 душно 1001.5 1002.0
03 25.05 З 2 2000 м мгла ясно +31.6 +15.1 37 +34 +42 душно 1002.4 1002.0 +23.8 +43.0
06 25.05 СЗ 2 4000 м мгла ясно +41.4 +5.7 11 +38 +59 опасность
солнечного
удара
1001.2 1001.0
09 25.05 З 6 4000 м мгла ясно +43.0 +4.3 10 +40 +46 очень
жарко
998.9 999.0
12 25.05 З 4 4000 м мгла ясно +42.4 +5.9 11 +40 +42 очень
жарко
997.4 997.0 +43.6
15 25.05 штиль 0 2000 м мгла ясно +32.0 +15.7 37 +34 +34 душно 1000.0 1000.0

 

Местоположение метеостанции New Delhi (Delhi, Индия): широта 28.58 долгота 77.20 высота над уровнем моря 216 м.

В архиве по умолчанию представлена погода в New Delhi за последнюю неделю. Архивные данные за месяц целиком и за предыдущие месяцы, начиная с января 2011 года, Вы можете получить, выбрав интересующий диапазон дат из раскрывающегося списка и нажав кнопку "Ввод!".


*Определитесь, кто Вы:
робот инопланетянин человек

Внимание! Время в таблицах - всемирное. Для получения местного времени необходимо прибавить поправку, которая в New Delhi равна 5.5 ч.

Смотрите также архив погоды в соседних городах и на ближайших метеорологических станциях:

Погода в New Delhi Airport (Delhi, Индия) (8 км)
Погода в Ridge (Delhi, Индия) (10 км)
Погода в New Delhi Aya Nagar (Delhi, Индия) (13 км)
Погода в Rohtak (Haryana, Индия) (67 км)
Погода в Meerut (Uttar Pradesh, Индия) (70 км)
Погода в Karnal (Haryana, Индия) (126 км)
Погода в Hissar (Haryana, Индия) (157 км)
Погода в Pilani (Rajasthan, Индия) (161 км)
Погода в Najibabad (Uttar Pradesh, Индия) (163 км)
Погода в Agra (Uttar Pradesh, Индия) (176 км)

Пояснения к столбцам:

Ветер - указаны скорость ветра в м/с - средняя за 10 мин, порывы в срок и между сроками (в фигурных скобках) и направление, откуда дует ветер: С - северный, СВ - северо-восточный, В - восточный, ЮВ - юго-восточный, Ю - южный, ЮЗ - юго-западный, З - западный, СЗ - северо-западный.
Видимость - горизонтальная дальность видимости в метрах или километрах. При видимости от 1 до 10 км при отсутствии осадков обычно наблюдается дымка, при ухудшении видимости до 1 км и менее - туман. В сухую погоду видимость может ухудшаться дымом, пылью или мглою.
Явления - указаны атмосферные явления, наблюдавшиеся в срок или в последний час перед сроком; фигурными скобками обозначены явления, наблюдавшиеся между сроками (за 1-3 часа до срока); квадратными скобками обозначены град или гололедные отложения с указанием их диаметра в мм.
Облачность - указаны через наклонную черту общая и нижняя облачность в баллах и высота нижней границы облаков в метрах; квадратными скобками обозначены формы облаков: Ci - перистые, Cs - перисто-слоистые, Cc - перисто-кучевые, Ac - высококучевые, As - высокослоистые, Sc - слоисто-кучевые, Ns - слоисто-дождевые, Cu - кучевые, Cb - кучево-дождевые. Подробнее классификацию облаков см. в Атласе облаков (PDF).
T - Температура воздуха - температура, измеренная на высоте 2 м над землей.
Td - Температура точки росы - температура, при понижении до которой содержащийся в воздухе водяной пар достигнет насыщения.
f - Относительная влажность воздуха - влажноcть воздуха, измеренная на высоте 2 м над землей.
Te - Эффективная температура - температура, которую ощущает одетый по сезону человек в тени. Характеристика душности погоды. При расчете учитывается влияние влажности воздуха и скорости ветра на теплоощущения человека.
Tes - Эффективная температура на солнце - температура, которую ощущает человек, с поправкой на солнечный нагрев. Характеристика знойности погоды. Зависит от высоты солнца над горизонтом, облачности и скорости ветра. Ночью, в пасмурную погоду, а также при ветре 12 м/с и более поправка равна нулю.
P - Атмосферное давление - приведенное к уровню моря атмосферное давление.
Po - Атмосферное давление - измеренное на уровне метеостанции атмосферное давление.
Tmin - Минимальная температура - минимум температуры воздуха на высоте 2 м над землей.
Tmax - Максимальная температура - максимум температуры воздуха на высоте 2 м над землей.
R - Количество осадков - Количество выпавших осадков за период времени, мм. При наведении курсора мыши на число - период времени, за который выпало указанное количество осадков.
R24 - Количество осадков - Количество выпавших осадков за 24 часа, мм.
S - Снежный покров - Высота снежного покрова, см. При наведении курсора мыши на число - состояние снежного покрова и степень покрытия местности в баллах.